TimeMST,TemperatureF,Dew PointF,Humidity,Sea Level PressureIn,VisibilityMPH,Wind Direction,Wind SpeedMPH,Gust SpeedMPH,PrecipitationIn,Events,Conditions,WindDirDegrees,DateUTC
12:57 AM,21.0,18.0,88,29.96,9.0,WSW,10.4,-,0.00,,Mostly Cloudy,250,2013-02-10 07:57:00
1:57 AM,21.9,18.0,85,29.94,10.0,WSW,11.5,-,N/A,,Overcast,240,2013-02-10 08:57:00
2:57 AM,21.9,18.0,85,29.93,10.0,WSW,10.4,19.6,N/A,,Overcast,240,2013-02-10 09:57:00
3:57 AM,21.9,18.0,85,29.91,6.0,SW,11.5,19.6,0.00,Snow,Light Snow,230,2013-02-10 10:57:00
4:57 AM,21.9,18.0,85,29.91,4.0,SW,12.7,-,0.00,Snow,Light Snow,230,2013-02-10 11:57:00
5:57 AM,21.0,18.0,88,29.91,5.0,SW,11.5,-,0.00,Snow,Light Snow,230,2013-02-10 12:57:00
6:57 AM,21.0,18.0,88,29.91,7.0,SW,12.7,-,0.00,Snow,Light Snow,230,2013-02-10 13:57:00
7:19 AM,21.2,17.6,86,29.85,1.2,SW,17.3,21.9,0.00,Snow,Light Snow,230,2013-02-10 14:19:00
7:24 AM,21.2,17.6,86,29.86,3.0,SW,12.7,21.9,0.00,Snow,Light Snow,230,2013-02-10 14:24:00
7:57 AM,21.9,18.0,85,29.92,2.5,SW,11.5,-,0.00,Snow,Light Snow,230,2013-02-10 14:57:00
8:10 AM,21.2,17.6,86,29.86,1.5,SW,13.8,-,0.00,Snow,Light Snow,230,2013-02-10 15:10:00
8:21 AM,21.2,17.6,86,29.86,2.0,WSW,13.8,-,0.00,Snow,Light Snow,240,2013-02-10 15:21:00
8:40 AM,21.2,17.6,86,29.87,1.8,WSW,15.0,24.2,0.00,Snow,Light Snow,240,2013-02-10 15:40:00
8:47 AM,21.2,19.4,93,29.87,2.0,SW,12.7,-,0.00,Snow,Light Snow,220,2013-02-10 15:47:00
8:54 AM,23.0,17.6,80,29.87,2.0,SW,15.0,-,0.00,Snow,Light Snow,230,2013-02-10 15:54:00
8:57 AM,21.9,18.0,85,29.92,1.8,SW,16.1,-,0.00,Snow,Light Snow,220,2013-02-10 15:57:00
9:57 AM,23.0,19.0,85,29.91,2.5,SW,13.8,-,0.00,Snow,Light Snow,230,2013-02-10 16:57:00
10:01 AM,23.0,19.4,86,29.87,4.0,SW,15.0,-,0.00,Snow,Light Snow,230,2013-02-10 17:01:00
10:09 AM,23.0,17.6,80,29.87,4.0,SW,17.3,29.9,0.00,Snow,Light Snow,230,2013-02-10 17:09:00
10:25 AM,23.0,17.6,80,29.87,2.0,SW,15.0,21.9,0.00,Snow,Light Snow,230,2013-02-10 17:25:00
10:33 AM,23.0,17.6,80,29.87,1.8,SW,16.1,23.0,0.00,Snow,Light Snow,230,2013-02-10 17:33:00
10:57 AM,24.1,19.0,81,29.92,1.5,SW,16.1,-,0.00,Snow,Light Snow,220,2013-02-10 17:57:00
11:06 AM,24.8,19.4,80,29.88,2.0,SW,15.0,23.0,0.00,Snow,Light Snow,220,2013-02-10 18:06:00
11:14 AM,23.0,19.4,86,29.87,1.5,SW,13.8,-,0.00,Snow,Light Snow,220,2013-02-10 18:14:00
11:30 AM,23.0,19.4,86,29.87,2.0,SW,15.0,-,0.00,Snow,Light Snow,220,2013-02-10 18:30:00
11:43 AM,23.0,19.4,86,29.87,1.5,SSW,15.0,-,0.00,Snow,Light Snow,210,2013-02-10 18:43:00
11:57 AM,23.0,19.9,88,29.91,1.2,SSW,15.0,-,0.01,Snow,Light Snow,210,2013-02-10 18:57:00
12:06 PM,23.0,19.4,86,29.86,0.8,SSW,16.1,21.9,0.00,Snow,Light Snow,210,2013-02-10 19:06:00
12:15 PM,23.0,19.4,86,29.85,0.5,SSW,16.1,-,0.00,Fog-Snow,Snow,210,2013-02-10 19:15:00
12:31 PM,23.0,19.4,86,29.85,0.8,SW,15.0,24.2,0.00,Snow,Light Snow,220,2013-02-10 19:31:00
12:42 PM,23.0,19.4,86,29.84,0.8,SW,18.4,-,0.00,Snow,Light Snow,220,2013-02-10 19:42:00
12:57 PM,23.0,19.9,88,29.88,0.5,SW,19.6,26.5,0.00,Fog-Snow,Snow,220,2013-02-10 19:57:00
1:57 PM,24.1,21.0,88,29.86,0.5,SW,18.4,-,0.01,Fog-Snow,Snow,220,2013-02-10 20:57:00
2:26 PM,24.8,21.2,86,29.80,0.8,SW,17.3,-,0.00,Snow,Light Snow,230,2013-02-10 21:26:00
2:57 PM,25.0,19.9,81,29.83,0.5,SW,16.1,27.6,0.01,Snow,Snow,230,2013-02-10 21:57:00
3:09 PM,24.8,21.2,86,29.80,0.5,SW,17.3,-,0.00,Fog-Snow,Snow,220,2013-02-10 22:09:00
3:24 PM,24.8,21.2,86,29.81,0.2,SW,13.8,24.2,0.01,Fog-Snow,Snow,230,2013-02-10 22:24:00
3:30 PM,24.8,21.2,86,29.81,0.5,SW,11.5,23.0,0.01,Fog-Snow,Snow,230,2013-02-10 22:30:00
3:46 PM,24.8,21.2,86,29.82,0.2,West,10.4,-,0.02,Fog-Snow,Heavy Snow,260,2013-02-10 22:46:00
3:57 PM,21.9,19.9,92,29.88,0.2,WNW,8.1,16.1,0.04,Fog-Snow,Heavy Snow,290,2013-02-10 22:57:00
4:05 PM,21.2,19.4,93,29.82,0.2,West,6.9,-,0.02,Fog-Snow,Heavy Snow,280,2013-02-10 23:05:00
4:26 PM,21.2,19.4,93,29.83,0.2,West,3.5,-,0.06,Fog-Snow,Snow,270,2013-02-10 23:26:00
4:57 PM,21.0,18.0,88,29.89,0.2,West,8.1,-,0.09,Fog-Snow,Snow,270,2013-02-10 23:57:00
5:13 PM,21.2,17.6,86,29.84,0.5,Variable,6.9,-,0.01,Fog-Snow,Snow,0,2013-02-11 00:13:00
5:29 PM,21.2,15.8,80,29.84,1.0,Variable,5.8,-,0.01,Snow,Light Snow,0,2013-02-11 00:29:00
5:42 PM,21.2,17.6,86,29.85,0.8,WSW,8.1,-,0.01,Snow,Light Snow,250,2013-02-11 00:42:00
5:55 PM,21.0,17.1,85,29.92,1.0,West,5.8,-,0.02,Snow,Light Snow,260,2013-02-11 00:55:00
6:01 PM,21.2,17.6,86,29.86,0.8,West,6.9,-,0.00,Snow,Light Snow,270,2013-02-11 01:01:00
6:21 PM,21.2,17.6,86,29.86,1.0,WSW,3.5,-,0.01,Snow,Light Snow,250,2013-02-11 01:21:00
6:30 PM,21.2,17.6,86,29.86,2.0,WSW,6.9,-,0.01,Snow,Light Snow,240,2013-02-11 01:30:00
6:38 PM,21.2,17.6,86,29.87,6.0,WSW,4.6,-,0.01,Snow,Light Snow,250,2013-02-11 01:38:00
6:43 PM,21.2,17.6,86,29.86,1.8,WSW,5.8,-,0.01,Snow,Light Snow,250,2013-02-11 01:43:00
6:55 PM,21.2,17.6,86,29.87,3.0,WSW,6.9,-,0.01,Snow,Light Snow,240,2013-02-11 01:55:00
6:57 PM,21.0,17.1,85,29.93,2.5,WSW,5.8,-,0.01,Snow,Light Snow,240,2013-02-11 01:57:00
7:06 PM,19.4,17.6,93,29.87,1.5,SW,8.1,-,0.00,Snow,Light Snow,230,2013-02-11 02:06:00
7:16 PM,19.4,17.6,93,29.86,2.5,SW,8.1,-,0.00,Snow,Light Snow,220,2013-02-11 02:16:00
7:26 PM,19.4,17.6,93,29.87,4.0,SW,8.1,-,0.00,Snow,Light Snow,230,2013-02-11 02:26:00
7:57 PM,19.0,16.0,88,29.94,10.0,Calm,Calm,-,0.00,,Overcast,0,2013-02-11 02:57:00
8:57 PM,17.1,14.0,88,29.98,10.0,Calm,Calm,-,N/A,,Overcast,0,2013-02-11 03:57:00
9:57 PM,12.0,9.0,88,30.00,10.0,Calm,Calm,-,N/A,,Clear,0,2013-02-11 04:57:00
10:57 PM,7.0,3.9,87,30.02,10.0,SW,3.5,-,N/A,,Clear,230,2013-02-11 05:57:00
11:57 PM,5.0,1.0,84,30.04,10.0,Calm,Calm,-,N/A,,Clear,0,2013-02-11 06:57:00